period_start,C,m1,H,J0,J1,J2,J3,J4,J5,JA,JB,JC,JD,JJ,JK,JN,#
2014-12-09 00:04:38,0.09,0.23,0.00,21.80,26.66,29.91,4.82,26.23,1034.23,2034.01,3416.28,3254.36,3526.04,349.89,355.03,2.46,0000 0000 0000 0000 000000
2014-12-09 00:09:39,0.11,0.24,0.00,21.82,26.65,29.88,4.87,26.30,1034.22,2034.03,3414.84,3253.46,3524.96,349.67,354.72,2.49,0000 0000 0000 0000 000000
2014-12-09 00:14:41,0.10,0.24,0.00,21.79,26.65,29.90,4.86,26.25,1034.25,2034.04,3413.58,3252.48,3523.93,350.20,355.37,2.52,0000 0000 0000 0000 000000
2014-12-09 00:19:42,0.09,0.24,0.00,21.80,26.65,29.90,5.01,26.35,1034.50,2034.02,3412.32,3251.56,3522.93,350.01,355.01,2.55,0000 0000 0000 0000 000000
2014-12-09 00:24:43,0.09,0.25,0.00,21.82,26.65,29.89,4.74,26.27,1034.65,2034.03,3410.99,3250.64,3521.99,349.61,354.87,2.58,0000 0000 0000 0000 000000
2014-12-09 00:29:45,0.10,0.25,0.00,21.82,26.65,29.90,4.96,26.25,1034.60,2034.04,3409.68,3249.71,3521.09,350.07,355.28,2.61,0000 0000 0000 0000 000000
2014-12-09 00:34:46,0.07,0.25,0.00,21.79,26.65,29.89,4.95,26.35,1034.61,2034.07,3408.60,3248.94,3520.20,350.09,355.47,2.64,0000 0000 0000 0000 000000
2014-12-09 00:39:47,0.11,0.25,0.00,21.82,26.65,29.87,4.79,26.31,1034.49,2034.03,3407.14,3247.88,3519.27,349.65,354.73,2.67,0000 0000 0000 0000 000000
2014-12-09 00:44:48,0.08,0.26,0.00,21.80,26.65,29.86,4.94,26.18,1034.62,2034.05,3405.83,3246.98,3518.24,349.88,355.15,2.70,0000 0000 0000 0000 000000
2014-12-09 00:49:50,0.09,0.26,0.00,21.77,26.66,29.88,4.93,26.23,1034.66,2034.05,3404.79,3246.05,3517.29,350.40,355.44,2.73,0000 0000 0000 0000 000000
2014-12-09 00:54:51,0.10,0.26,0.00,21.81,26.66,29.88,4.93,26.26,1034.64,2034.02,3403.58,3245.11,3515.96,350.00,355.50,2.76,0000 0000 0000 0000 000000
2014-12-09 00:59:52,0.10,0.27,0.00,21.84,26.66,29.90,4.94,26.31,1034.64,2034.03,3402.32,3244.19,3514.90,350.00,354.86,2.79,0000 0000 0000 0000 000000
2014-12-09 01:04:53,0.12,0.27,0.00,21.83,26.66,29.90,4.97,26.27,1034.66,2034.01,3400.76,3243.16,3513.79,350.07,355.33,2.82,0000 0000 0000 0000 000000
2014-12-09 01:09:54,0.11,0.27,0.00,21.80,26.66,29.88,5.02,26.30,1034.66,2034.02,3399.34,3242.10,3512.67,350.62,355.97,2.85,0000 0000 0000 0000 000000
2014-12-09 01:14:56,0.11,0.28,0.00,21.87,26.66,29.88,4.85,26.15,1034.67,2034.02,3397.79,3241.01,3511.60,349.32,354.47,2.87,0000 0000 0000 0000 000000
2014-12-09 01:19:57,0.10,0.28,0.00,21.84,26.65,29.88,4.88,26.23,1034.65,2034.00,3396.28,3239.93,3510.40,349.99,355.05,2.90,0000 0000 0000 0000 000000
2014-12-09 01:24:58,0.12,0.28,0.00,21.82,26.65,29.89,4.92,26.35,1034.60,2034.04,3394.79,3238.87,3509.23,350.44,355.79,2.93,0000 0000 0000 0000 000000
2014-12-09 01:29:59,0.10,0.29,0.00,21.82,26.65,29.89,4.91,26.29,1034.58,2034.04,3393.32,3237.84,3508.14,350.17,355.29,2.96,0000 0000 0000 0000 000000
2014-12-09 01:35:00,0.14,0.29,0.00,21.83,26.65,29.86,4.84,26.33,1034.64,2034.03,3391.62,3236.64,3506.93,349.85,355.04,2.99,0000 0000 0000 0000 000000
2014-12-09 01:40:01,0.13,0.29,0.00,21.82,26.65,29.86,4.99,26.43,1034.68,2034.01,3389.85,3235.37,3505.62,350.30,355.64,3.02,0000 0000 0000 0000 000000
2014-12-09 01:45:03,0.11,0.30,0.00,21.84,26.65,29.87,4.93,26.43,1034.68,2034.02,3388.29,3234.20,3504.40,350.69,355.81,3.05,0000 0000 0000 0000 000000
2014-12-09 01:50:04,0.13,0.30,0.00,21.82,26.65,29.88,4.89,26.36,1034.57,2034.04,3386.64,3232.97,3503.10,349.72,354.98,3.08,0000 0000 0000 0000 000000
2014-12-09 01:55:06,0.14,0.30,0.00,21.82,26.65,29.88,4.87,26.43,1034.53,2034.03,3384.92,3231.73,3501.72,349.69,355.04,3.11,0000 0000 0000 0000 000000
2014-12-09 02:00:06,0.12,0.31,0.00,21.84,26.65,29.90,4.94,26.40,1034.45,2034.03,3383.30,3230.57,3500.48,350.21,354.89,3.14,0000 0000 0000 0000 000000
2014-12-09 02:05:08,0.12,0.31,0.00,21.85,26.65,29.89,4.93,26.43,1034.35,2034.03,3381.61,3229.36,3499.16,350.05,355.28,3.17,0000 0000 0000 0000 000000
2014-12-09 02:10:10,0.13,0.32,0.00,21.83,26.65,29.88,4.92,26.52,1034.33,2034.04,3379.90,3228.04,3497.70,349.85,355.03,3.20,0000 0000 0000 0000 000000
2014-12-09 02:15:11,0.13,0.32,0.00,21.80,26.65,29.86,4.83,26.42,1034.25,2034.01,3378.34,3226.79,3496.29,349.57,354.62,3.23,0000 0000 0000 0000 000000
2014-12-09 02:20:13,0.12,0.32,0.00,21.79,26.65,29.89,4.95,26.43,1034.21,2034.01,3376.68,3225.63,3495.02,350.06,355.19,3.26,0000 0000 0000 0000 000000
2014-12-09 02:25:14,0.13,0.33,0.00,21.84,26.65,29.88,4.92,26.37,1034.20,2034.01,3374.96,3224.44,3493.74,350.31,355.41,3.28,0000 0000 0000 0000 000000
2014-12-09 02:30:15,0.12,0.33,0.00,21.81,26.65,29.89,4.79,26.34,1034.20,2034.01,3373.32,3223.20,3492.37,349.52,354.63,3.31,0000 0000 0000 0000 000000
2014-12-09 02:35:17,0.13,0.34,0.00,21.83,26.65,29.89,4.97,26.43,1034.20,2034.01,3371.69,3221.96,3491.07,350.28,355.25,3.34,0000 0000 0000 0000 000000
2014-12-09 02:40:18,0.15,0.34,0.00,21.82,26.65,29.88,4.89,26.52,1034.20,2034.01,3369.78,3220.66,3489.67,349.60,354.68,3.37,0000 0000 0000 0000 000000
2014-12-09 02:45:19,0.11,0.34,0.00,21.82,26.65,29.88,4.84,26.32,1034.20,2034.01,3368.35,3219.52,3488.27,349.97,355.13,3.40,0000 0000 0000 0000 000000
2014-12-09 02:50:20,0.13,0.35,0.00,21.80,26.65,29.88,4.85,26.39,1034.20,2034.01,3366.54,3218.28,3486.87,350.07,355.22,3.43,0000 0000 0000 0000 000000
2014-12-09 02:55:22,0.13,0.35,0.00,21.75,26.65,29.84,4.85,26.27,1034.20,2034.01,3364.90,3217.06,3485.52,349.56,354.63,3.46,0000 0000 0000 0000 000000
2014-12-09 03:00:23,0.15,0.36,0.00,21.79,26.65,29.84,4.94,26.55,1034.20,2034.01,3362.95,3215.71,3484.35,350.30,355.46,3.49,0000 0000 0000 0000 000000
2014-12-09 03:05:25,0.14,0.36,0.00,21.77,26.65,29.87,4.92,26.36,1034.20,2034.01,3361.12,3214.39,3482.79,349.64,354.82,3.52,0000 0000 0000 0000 000000
2014-12-09 03:10:26,0.13,0.36,0.00,21.75,26.65,29.81,4.91,26.31,1034.20,2034.00,3359.22,3213.03,3481.37,350.50,355.90,3.55,0000 0000 0000 0000 000000
2014-12-09 03:15:27,0.14,0.37,0.00,21.77,26.65,29.88,4.89,26.36,1034.20,2034.02,3357.55,3211.80,3480.07,349.78,355.12,3.58,0000 0000 0000 0000 000000
2014-12-09 03:20:28,0.14,0.37,0.00,21.76,26.64,29.84,4.89,26.20,1034.20,2034.01,3355.84,3210.54,3478.58,350.48,355.67,3.61,0000 0000 0000 0000 000000
2014-12-09 03:25:29,0.14,0.38,0.00,21.79,26.65,29.84,4.88,26.15,1034.20,2034.01,3354.04,3209.17,3476.96,349.72,354.75,3.64,0000 0000 0000 0000 000000
2014-12-09 03:30:30,0.15,0.38,0.00,21.76,26.65,29.85,4.89,26.27,1034.20,2034.00,3352.06,3207.78,3475.59,350.01,355.19,3.67,0000 0000 0000 0000 000000
2014-12-09 03:35:32,0.13,0.38,0.00,21.73,26.65,29.88,4.90,26.25,1034.20,2034.00,3350.24,3206.56,3474.42,349.93,355.25,3.69,0000 0000 0000 0000 000000
2014-12-09 03:40:33,0.13,0.39,0.00,21.74,26.64,29.84,4.86,26.50,1034.20,2034.00,3348.33,3205.17,3472.95,350.03,355.18,3.72,0000 0000 0000 0000 000000
2014-12-09 03:45:34,0.17,0.39,0.00,21.74,26.64,29.85,4.80,26.40,1034.20,2034.01,3346.47,3203.71,3471.33,348.92,354.08,3.75,0000 0000 0000 0000 000000
2014-12-09 03:50:35,0.24,0.40,0.00,21.74,26.64,29.88,4.86,26.41,1034.20,2034.00,3343.66,3201.65,3468.88,349.86,355.05,3.78,0000 0000 0000 0000 000000
2014-12-09 03:55:36,0.26,0.41,0.00,21.74,26.64,29.86,4.96,26.52,1034.20,2034.00,3340.20,3199.35,3466.37,350.31,355.35,3.81,0000 0000 0000 0000 000000
2014-12-09 04:00:38,0.26,0.42,0.00,21.74,26.63,29.83,4.88,26.38,1034.20,2034.00,3336.70,3197.22,3464.06,349.68,355.05,3.84,0000 0000 0000 0000 000000
2014-12-09 04:05:39,0.28,0.42,0.00,21.78,26.63,29.84,4.86,26.67,1034.19,2034.00,3332.86,3194.64,3461.41,349.69,354.82,3.87,0000 0000 0000 0000 000000
2014-12-09 04:10:40,0.32,0.43,0.00,21.76,26.62,29.85,4.93,26.54,1034.16,2034.00,3328.70,3191.86,3458.29,349.79,355.22,3.90,0000 0000 0000 0000 000000
2014-12-09 04:15:42,0.30,0.44,0.00,21.76,26.62,29.84,4.89,26.56,1034.14,2034.00,3324.73,3189.08,3455.46,350.20,355.58,3.93,0000 0000 0000 0000 000000
2014-12-09 04:20:43,0.31,0.45,0.00,21.73,26.62,29.86,4.92,26.57,1034.17,2034.00,3320.68,3186.37,3452.50,349.98,355.20,3.96,0000 0000 0000 0000 000000
2014-12-09 04:25:45,0.29,0.46,0.00,21.71,26.62,29.85,4.85,26.56,1034.10,2034.00,3316.62,3183.65,3449.58,349.89,355.05,3.99,0000 0000 0000 0000 000000
2014-12-09 04:30:46,0.27,0.47,0.00,21.75,26.62,29.85,5.00,26.73,1034.10,2034.00,3312.98,3181.22,3447.01,350.72,355.74,4.02,0000 0000 0000 0000 000000
2014-12-09 04:35:47,0.28,0.48,0.00,21.71,26.62,29.87,4.92,26.48,1034.05,2034.00,3309.19,3178.74,3444.45,349.97,355.23,4.05,0000 0000 0000 0000 000000
2014-12-09 04:40:49,0.26,0.48,0.00,21.71,26.62,29.86,4.95,26.75,1034.12,2034.00,3305.53,3176.37,3442.04,350.15,355.47,4.08,0000 0000 0000 0000 000000
2014-12-09 04:45:50,0.25,0.49,0.00,21.71,26.61,29.84,4.98,26.69,1034.15,2034.00,3302.32,3174.11,3439.62,350.54,355.77,4.10,0000 0000 0000 0000 000000
2014-12-09 04:50:51,0.28,0.50,0.00,21.72,26.60,29.84,4.92,26.57,1034.17,2034.00,3298.92,3171.68,3436.83,349.94,355.22,4.13,0000 0000 0000 0000 000000
2014-12-09 04:55:52,0.26,0.51,0.00,21.75,26.60,29.82,4.83,26.62,1034.11,2034.00,3295.43,3169.33,3434.31,349.62,354.64,4.16,0000 0000 0000 0000 000000
2014-12-09 05:00:54,0.26,0.52,0.00,21.74,26.60,29.84,4.96,26.75,1034.01,2034.00,3291.86,3167.07,3432.00,349.72,354.74,4.19,0000 0000 0000 0000 000000
2014-12-09 05:05:55,0.25,0.52,0.00,21.72,26.60,29.83,4.88,26.75,1034.09,2034.00,3288.49,3164.79,3429.67,350.05,355.47,4.22,0000 0000 0000 0000 000000
2014-12-09 05:10:57,0.25,0.53,0.00,21.74,26.60,29.85,4.94,26.73,1034.15,2034.00,3285.31,3162.54,3427.23,349.68,354.81,4.25,0000 0000 0000 0000 000000
2014-12-09 05:15:58,0.25,0.54,0.00,21.72,26.60,29.84,4.91,26.72,1034.09,2034.00,3282.11,3160.36,3424.83,350.28,355.38,4.28,0000 0000 0000 0000 000000
2014-12-09 05:20:59,0.23,0.54,0.00,21.72,26.59,29.83,4.94,26.65,1034.06,2034.00,3279.04,3158.27,3422.67,349.92,355.12,4.31,0000 0000 0000 0000 000000
2014-12-09 05:26:00,0.19,0.55,0.00,21.71,26.59,29.84,4.85,26.68,1034.17,2034.00,3276.42,3156.52,3420.86,349.51,354.77,4.34,0000 0000 0000 0000 000000
2014-12-09 05:31:02,0.20,0.56,0.00,21.75,26.58,29.87,4.83,26.61,1034.18,2034.00,3274.02,3154.72,3418.82,349.63,354.63,4.37,0000 0000 0000 0000 000000
2014-12-09 05:36:03,0.17,0.56,0.00,21.73,26.57,29.86,4.92,26.77,1034.18,2034.00,3271.72,3153.02,3416.93,349.61,354.76,4.40,0000 0000 0000 0000 000000
2014-12-09 05:41:04,0.16,0.57,0.00,21.76,26.57,29.80,4.88,26.70,1034.12,2034.00,3269.61,3151.54,3415.27,350.05,355.10,4.43,0000 0000 0000 0000 000000
2014-12-09 05:46:06,0.16,0.57,0.00,21.78,26.57,29.80,4.94,26.65,1033.91,2034.00,3267.60,3150.06,3413.71,350.27,355.37,4.46,0000 0000 0000 0000 000000
2014-12-09 05:51:07,0.18,0.58,0.00,21.71,26.57,29.81,4.91,26.62,1033.76,2034.00,3265.34,3148.51,3412.02,349.86,354.99,4.49,0000 0000 0000 0000 000000
2014-12-09 05:56:08,0.15,0.58,0.00,21.71,26.57,29.80,4.92,26.63,1033.82,2034.00,3263.34,3147.03,3410.54,350.34,355.45,4.51,0000 0000 0000 0000 000000
2014-12-09 06:01:09,0.17,0.59,0.00,21.72,26.57,29.83,4.96,26.65,1033.73,2034.00,3261.34,3145.51,3408.86,350.44,355.54,4.54,0000 0000 0000 0000 000000
2014-12-09 06:06:11,0.15,0.59,0.00,21.69,26.57,29.82,4.93,26.59,1033.72,2033.99,3259.38,3144.04,3407.35,350.70,355.77,4.57,0000 0000 0000 0000 000000
2014-12-09 06:11:12,0.16,0.60,0.00,21.72,26.57,29.83,4.93,26.57,1033.73,2033.99,3257.42,3142.68,3405.83,350.13,355.23,4.60,0000 0000 0000 0000 000000
2014-12-09 06:16:14,0.15,0.60,0.00,21.71,26.57,29.78,4.96,26.52,1033.73,2033.99,3255.36,3141.26,3404.38,350.15,355.25,4.63,0000 0000 0000 0000 000000
2014-12-09 06:21:15,0.16,0.61,0.00,21.69,26.55,29.82,4.96,26.63,1033.72,2033.99,3253.51,3139.83,3402.82,350.01,355.12,4.66,0000 0000 0000 0000 000000
2014-12-09 06:26:16,0.15,0.61,0.00,21.69,26.55,29.79,4.92,26.68,1033.71,2033.99,3251.52,3138.43,3401.27,349.72,354.92,4.69,0000 0000 0000 0000 000000
2014-12-09 06:31:17,0.14,0.62,0.00,21.68,26.55,29.80,4.89,26.61,1033.71,2033.99,3249.71,3137.05,3399.73,349.40,354.62,4.72,0000 0000 0000 0000 000000
2014-12-09 06:36:18,0.16,0.62,0.00,21.69,26.55,29.81,4.93,26.75,1033.71,2033.99,3247.85,3135.66,3398.27,350.97,356.05,4.75,0000 0000 0000 0000 000000
2014-12-09 06:41:20,0.15,0.62,0.00,21.67,26.55,29.77,4.88,26.70,1033.69,2034.00,3245.93,3134.48,3396.71,350.00,354.93,4.78,0000 0000 0000 0000 000000
2014-12-09 06:46:21,0.13,0.63,0.00,21.68,26.54,29.78,4.90,26.75,1033.71,2034.00,3244.07,3133.22,3395.37,349.84,354.87,4.81,0000 0000 0000 0000 000000
2014-12-09 06:51:22,0.16,0.63,0.00,21.67,26.54,29.78,4.93,26.68,1033.71,2034.00,3242.20,3131.78,3393.97,350.79,356.05,4.84,0000 0000 0000 0000 000000
2014-12-09 06:56:23,0.14,0.64,0.00,21.70,26.53,29.75,4.96,26.67,1033.71,2034.00,3240.42,3130.50,3392.46,350.51,355.61,4.87,0000 0000 0000 0000 000000
2014-12-09 07:01:24,0.15,0.64,0.00,21.68,26.52,29.76,4.96,26.66,1033.71,2034.00,3238.42,3129.04,3391.02,350.01,355.22,4.90,0000 0000 0000 0000 000000
2014-12-09 07:06:25,0.16,0.65,0.00,21.64,26.52,29.78,4.88,26.66,1033.71,2034.00,3236.51,3127.64,3389.60,350.00,354.93,4.92,0000 0000 0000 0000 000000
2014-12-09 07:11:27,0.14,0.65,0.00,21.65,26.52,29.76,4.89,26.68,1033.71,2034.00,3234.63,3126.28,3388.13,349.98,355.21,4.95,0000 0000 0000 0000 000000
2014-12-09 07:16:28,0.15,0.66,0.00,21.64,26.52,29.74,4.93,26.63,1033.71,2034.00,3232.85,3124.93,3386.75,350.42,355.57,4.98,0000 0000 0000 0000 000000
2014-12-09 07:21:30,0.16,0.66,0.00,21.66,26.52,29.76,4.92,26.76,1033.71,2034.00,3230.99,3123.62,3385.34,349.96,355.15,5.01,0000 0000 0000 0000 000000
2014-12-09 07:26:31,0.14,0.67,0.00,21.65,26.52,29.77,4.86,26.73,1033.72,2034.00,3229.08,3122.26,3383.81,349.79,354.99,5.04,0000 0000 0000 0000 000000
2014-12-09 07:31:32,0.31,0.67,0.00,21.66,26.52,29.78,4.88,26.75,1033.73,2034.02,3225.99,3120.18,3381.56,349.81,355.19,5.07,0000 0000 0000 0000 000000
2014-12-09 07:36:33,0.20,0.68,0.00,21.67,26.52,29.74,4.94,26.74,1033.72,2034.01,3222.50,3117.82,3379.15,350.63,355.74,5.10,0000 0000 0000 0000 000000
2014-12-09 07:41:34,0.16,0.69,0.00,21.69,26.51,29.75,4.87,26.75,1033.71,2034.01,3220.41,3116.33,3377.50,349.96,354.97,5.13,0000 0000 0000 0000 000000
2014-12-09 07:46:36,0.16,0.69,0.00,21.67,26.50,29.74,4.90,26.69,1033.71,2034.01,3218.54,3114.87,3375.92,350.49,355.60,5.16,0000 0000 0000 0000 000000
2014-12-09 07:51:37,0.16,0.70,0.00,21.67,26.50,29.75,4.96,26.78,1033.71,2034.02,3216.43,3113.33,3374.20,350.21,355.45,5.19,0000 0000 0000 0000 000000
2014-12-09 07:56:38,0.17,0.70,0.00,21.66,26.50,29.75,4.89,26.69,1033.71,2034.01,3214.32,3111.81,3372.57,350.57,355.66,5.22,0000 0000 0000 0000 000000
2014-12-09 08:01:40,0.14,0.70,0.00,21.66,26.50,29.72,4.93,26.63,1033.71,2034.02,3212.50,3110.54,3371.17,350.61,355.60,5.25,0000 0000 0000 0000 000000
2014-12-09 08:06:41,0.15,0.71,0.00,21.66,26.50,29.73,4.93,26.77,1033.71,2034.02,3210.74,3109.21,3369.68,350.43,355.49,5.28,0000 0000 0000 0000 000000
2014-12-09 08:11:42,0.14,0.71,0.00,21.67,26.50,29.74,4.86,26.66,1033.71,2034.01,3208.83,3107.84,3368.24,349.58,354.67,5.31,0000 0000 0000 0000 000000
2014-12-09 08:16:44,0.16,0.72,0.00,21.68,26.50,29.75,4.92,26.73,1033.72,2034.01,3206.90,3106.52,3366.79,350.03,355.17,5.33,0000 0000 0000 0000 000000
2014-12-09 08:21:45,0.15,0.72,0.00,21.67,26.50,29.73,4.83,26.42,1033.74,2034.02,3204.96,3105.07,3365.39,349.57,354.72,5.36,0000 0000 0000 0000 000000
2014-12-09 08:26:46,0.16,0.73,0.00,21.66,26.50,29.70,4.90,26.66,1033.77,2034.01,3203.09,3103.67,3363.84,349.65,354.87,5.39,0000 0000 0000 0000 000000
2014-12-09 08:31:48,0.14,0.73,0.00,21.67,26.50,29.72,5.02,26.79,1033.79,2034.03,3201.23,3102.28,3362.37,350.90,356.04,5.42,0000 0000 0000 0000 000000
2014-12-09 08:36:48,0.17,0.74,0.00,21.67,26.50,29.71,4.86,26.77,1033.76,2034.02,3199.39,3100.82,3360.77,349.98,355.07,5.45,0000 0000 0000 0000 000000
2014-12-09 08:41:50,0.15,0.74,0.00,21.69,26.50,29.70,4.97,26.64,1033.96,2034.01,3197.42,3099.42,3359.28,350.48,355.77,5.48,0000 0000 0000 0000 000000
2014-12-09 08:46:51,0.15,0.75,0.00,21.67,26.50,29.72,4.93,26.63,1033.90,2034.01,3195.63,3098.05,3357.75,350.21,355.36,5.51,0000 0000 0000 0000 000000
2014-12-09 08:51:52,0.17,0.75,0.00,21.65,26.50,29.71,4.89,26.75,1033.80,2034.03,3193.63,3096.61,3356.25,350.37,355.48,5.54,0000 0000 0000 0000 000000
2014-12-09 08:56:54,0.17,0.76,0.00,21.66,26.50,29.68,4.90,26.68,1033.84,2034.05,3191.67,3095.19,3354.65,350.29,355.48,5.57,0000 0000 0000 0000 000000
2014-12-09 09:01:55,0.17,0.76,0.00,21.68,26.50,29.71,4.90,26.72,1033.94,2034.04,3189.58,3093.66,3353.03,350.34,355.48,5.60,0000 0000 0000 0000 000000
2014-12-09 09:06:56,0.16,0.77,0.00,21.67,26.50,29.71,4.93,26.65,1033.98,2034.04,3187.48,3092.13,3351.45,349.93,355.02,5.63,0000 0000 0000 0000 000000
2014-12-09 09:11:58,0.17,0.77,0.00,21.67,26.50,29.73,4.93,26.67,1034.00,2034.04,3185.44,3090.62,3349.80,350.60,355.73,5.66,0000 0000 0000 0000 000000
2014-12-09 09:16:59,0.16,0.78,0.00,21.67,26.50,29.72,4.92,26.64,1033.87,2034.04,3183.40,3089.05,3348.18,349.79,355.07,5.69,0000 0000 0000 0000 000000
2014-12-09 09:22:01,0.17,0.78,0.00,21.64,26.50,29.72,4.91,26.77,1033.80,2034.01,3181.36,3087.60,3346.62,349.96,354.92,5.72,0000 0000 0000 0000 000000
2014-12-09 09:27:02,0.16,0.79,0.00,21.63,26.50,29.71,4.91,26.79,1033.90,2034.01,3179.41,3086.16,3345.03,349.92,354.93,5.75,0000 0000 0000 0000 000000
2014-12-09 09:32:03,0.18,0.79,0.00,21.65,26.50,29.70,4.92,26.69,1034.06,2034.05,3177.46,3084.70,3343.56,350.07,355.46,5.77,0000 0000 0000 0000 000000
2014-12-09 09:37:05,0.17,0.80,0.00,21.67,26.50,29.71,4.86,26.70,1033.86,2034.03,3175.35,3083.21,3341.88,349.75,355.06,5.80,0000 0000 0000 0000 000000
2014-12-09 09:42:06,0.18,0.80,0.00,21.66,26.50,29.69,4.97,26.74,1033.74,2034.01,3173.15,3081.57,3340.07,350.09,355.21,5.83,0000 0000 0000 0000 000000
2014-12-09 09:47:08,0.17,0.81,0.00,21.65,26.50,29.72,4.93,26.72,1033.73,2034.03,3171.18,3080.08,3338.48,349.80,354.95,5.86,0000 0000 0000 0000 000000
2014-12-09 09:52:09,0.17,0.81,0.00,21.66,26.50,29.72,4.96,26.71,1033.72,2034.02,3169.22,3078.63,3336.86,350.33,355.53,5.89,0000 0000 0000 0000 000000
2014-12-09 09:57:10,0.17,0.82,0.00,21.71,26.50,29.70,4.88,26.73,1033.72,2034.02,3167.14,3077.06,3335.28,349.75,354.90,5.92,0000 0000 0000 0000 000000
2014-12-09 10:02:12,0.17,0.82,0.00,21.70,26.50,29.70,4.85,26.65,1033.74,2034.02,3165.16,3075.61,3333.66,349.78,354.94,5.95,0000 0000 0000 0000 000000
2014-12-09 10:07:13,0.16,0.83,0.00,21.71,26.50,29.67,4.92,26.68,1033.72,2034.04,3163.14,3074.21,3332.11,349.85,355.07,5.98,0000 0000 0000 0000 000000
2014-12-09 10:12:14,0.17,0.83,0.00,21.71,26.50,29.71,4.94,26.68,1033.72,2034.01,3161.12,3072.69,3330.51,350.67,355.68,6.01,0000 0000 0000 0000 000000
2014-12-09 10:17:15,0.16,0.84,0.00,21.73,26.50,29.71,4.93,26.57,1033.72,2034.03,3159.17,3071.28,3328.85,350.10,355.08,6.04,0000 0000 0000 0000 000000
2014-12-09 10:22:16,0.16,0.84,0.00,21.71,26.50,29.68,4.92,26.62,1033.74,2034.02,3157.25,3069.88,3327.33,350.11,355.34,6.07,0000 0000 0000 0000 000000
2014-12-09 10:27:17,0.17,0.85,0.00,21.74,26.50,29.72,4.88,26.57,1033.77,2034.02,3155.20,3068.48,3325.77,350.15,355.16,6.10,0000 0000 0000 0000 000000
2014-12-09 10:32:19,0.15,0.85,0.00,21.71,26.50,29.73,4.82,26.60,1033.74,2034.02,3153.25,3067.00,3324.30,349.23,354.31,6.13,0000 0000 0000 0000 000000
2014-12-09 10:37:20,0.18,0.86,0.00,21.71,26.50,29.74,4.92,26.73,1033.73,2034.02,3151.21,3065.47,3322.59,350.03,355.23,6.16,0000 0000 0000 0000 000000
2014-12-09 10:42:21,0.17,0.86,0.00,21.69,26.50,29.71,4.93,26.60,1033.73,2034.01,3149.11,3063.94,3320.96,350.01,355.12,6.18,0000 0000 0000 0000 000000
2014-12-09 10:47:22,0.16,0.87,0.00,21.72,26.51,29.73,4.90,26.74,1033.72,2034.00,3147.18,3062.53,3319.52,350.32,355.41,6.21,0000 0000 0000 0000 000000
2014-12-09 10:52:24,0.15,0.87,0.00,21.70,26.52,29.73,4.92,26.70,1033.72,2034.01,3145.30,3061.12,3317.89,350.18,355.31,6.24,0000 0000 0000 0000 000000
2014-12-09 10:57:25,0.78,0.89,0.00,21.75,26.52,29.72,4.90,26.76,1033.72,2034.01,3137.13,3056.26,3312.81,349.95,355.26,6.27,0000 0000 0000 0000 000000
2014-12-09 11:02:26,0.22,0.90,0.00,21.75,26.52,29.73,4.87,26.78,1033.71,2034.00,3132.35,3053.30,3309.61,349.95,355.18,6.30,0000 0000 0000 0000 000000
2014-12-09 11:07:27,0.18,0.91,0.00,21.80,26.52,29.73,4.87,26.64,1033.71,2034.00,3130.18,3051.74,3307.96,350.08,355.09,6.33,0000 0000 0000 0000 000000
2014-12-09 11:12:28,0.17,0.91,0.00,21.78,26.52,29.74,4.87,26.70,1033.71,2034.00,3128.10,3050.25,3306.37,349.83,354.72,6.36,0000 0000 0000 0000 000000
2014-12-09 11:17:30,0.18,0.92,0.00,21.80,26.52,29.75,4.90,26.61,1033.71,2034.00,3126.01,3048.71,3304.77,350.35,355.19,6.39,0000 0000 0000 0000 000000
2014-12-09 11:22:31,0.17,0.92,0.00,21.77,26.52,29.73,4.89,26.75,1033.71,2034.00,3123.86,3047.19,3303.12,350.09,355.38,6.42,0000 0000 0000 0000 000000
2014-12-09 11:27:32,0.18,0.93,0.00,21.80,26.54,29.75,4.99,26.80,1033.72,2034.00,3121.83,3045.66,3301.51,350.30,355.13,6.45,0000 0000 0000 0000 000000
2014-12-09 11:32:34,0.16,0.93,0.00,21.77,26.54,29.76,4.92,26.64,1033.71,2034.00,3119.83,3044.21,3299.91,349.82,354.80,6.48,0000 0000 0000 0000 000000
2014-12-09 11:37:35,0.19,0.94,0.00,21.79,26.55,29.77,4.88,26.82,1033.71,2034.00,3117.75,3042.66,3298.22,349.79,354.89,6.51,0000 0000 0000 0000 000000
2014-12-09 11:42:36,0.17,0.94,0.00,21.80,26.55,29.78,5.04,26.78,1033.71,2034.00,3115.73,3041.07,3296.61,350.10,354.88,6.54,0000 0000 0000 0000 000000
2014-12-09 11:47:37,0.19,0.95,0.00,21.82,26.55,29.77,4.90,26.81,1033.71,2034.00,3113.77,3039.67,3294.88,349.79,354.55,6.57,0000 0000 0000 0000 000000
2014-12-09 11:52:39,0.18,0.95,0.00,21.81,26.55,29.77,4.91,26.76,1033.69,2034.00,3111.62,3037.94,3293.06,350.00,354.99,6.59,0000 0000 0000 0000 000000
2014-12-09 11:57:40,0.17,0.96,0.00,21.82,26.55,29.79,4.88,26.70,1033.70,2034.00,3109.43,3036.33,3291.35,349.46,354.48,6.62,0000 0000 0000 0000 000000
2014-12-09 12:02:42,0.20,0.96,0.00,21.84,26.55,29.81,4.90,26.77,1033.71,2033.99,3107.25,3034.70,3289.58,349.58,354.58,6.65,0000 0000 0000 0000 000000
2014-12-09 12:07:43,0.17,0.97,0.00,21.83,26.56,29.80,4.90,26.73,1033.70,2033.99,3105.07,3033.16,3287.90,349.93,354.86,6.68,0000 0000 0000 0000 000000
2014-12-09 12:12:45,0.17,0.98,0.00,21.83,26.57,29.80,4.82,26.62,1033.71,2033.99,3103.06,3031.72,3286.46,349.91,354.84,6.71,0000 0000 0000 0000 000000
2014-12-09 12:17:46,0.18,0.98,0.00,21.83,26.57,29.78,4.96,26.64,1033.70,2033.99,3100.99,3030.15,3284.70,350.14,354.80,6.74,0000 0000 0000 0000 000000
2014-12-09 12:22:47,0.19,0.99,0.00,21.87,26.57,29.80,4.83,26.66,1033.66,2033.99,3098.83,3028.49,3282.85,349.31,354.40,6.77,0000 0000 0000 0000 000000
2014-12-09 12:27:48,0.19,0.99,0.00,21.83,26.57,29.80,4.96,26.60,1033.59,2033.99,3096.63,3026.84,3281.10,350.17,355.07,6.80,0000 0000 0000 0000 000000
2014-12-09 12:32:50,0.18,1.00,0.00,21.88,26.57,29.79,4.86,26.63,1033.36,2033.99,3094.51,3025.28,3279.40,349.72,354.41,6.83,0000 0000 0000 0000 000000
2014-12-09 12:37:51,0.20,1.00,0.00,21.86,26.57,29.82,4.87,26.81,1033.25,2033.98,3092.32,3023.67,3277.61,350.01,354.72,6.86,0000 0000 0000 0000 000000
2014-12-09 12:42:52,0.19,1.01,0.00,21.88,26.57,29.82,4.84,26.79,1033.24,2033.98,3090.10,3021.95,3275.81,350.29,355.17,6.89,0000 0000 0000 0000 000000
2014-12-09 12:47:53,0.19,1.01,0.00,21.90,26.59,29.81,4.86,26.65,1033.22,2033.99,3087.96,3020.40,3274.02,350.06,354.75,6.92,0000 0000 0000 0000 000000
2014-12-09 12:52:54,0.18,1.02,0.00,21.90,26.60,29.82,4.93,26.66,1033.23,2033.98,3085.88,3018.80,3272.42,350.06,354.75,6.95,0000 0000 0000 0000 000000
2014-12-09 12:57:56,0.18,1.03,0.00,21.86,26.60,29.82,5.06,26.75,1033.22,2033.97,3083.71,3017.24,3270.71,350.85,355.50,6.98,0000 0000 0000 0000 000000
2014-12-09 13:02:57,0.18,1.03,0.00,21.88,26.60,29.80,4.84,26.69,1033.22,2033.96,3081.58,3015.66,3269.02,349.65,354.89,7.00,0000 0000 0000 0000 000000
2014-12-09 13:07:58,0.17,1.04,0.00,21.87,26.60,29.83,4.92,26.60,1033.22,2033.97,3079.63,3014.11,3267.37,349.88,354.60,7.03,0000 0000 0000 0000 000000